ハーゲンローザー彗星

175P/Hergenrother (2000)

English version
Home page
Updated on March 7, 2020

---------------------------------------------------------------------

・ プロフィール

符号 175P/2000 C1
発見日 2000年2月4日
発見光度 17.1等
発見者 Carl Hergenrother (Lunar and Planetary Laboratory)

・ 写真集

・ 軌道要素

Epoch 2000 Apr. 6.0 TT = JDT 2451640.5
T 2000 Mar. 19.85462 TT                                 MPC
q   2.0954991            (2000.0)            P               Q
n   0.14859563     Peri.   51.16211     -0.99598368     -0.02846492
a   3.5301949      Node   127.04402     -0.00179017     -0.94159710
e   0.4064070      Incl.    6.10524     +0.08951702     -0.33553637
P   6.63
>From 195 observations 2000 Jan. 4-2006 Jan. 27, mean residual 0".82.

・ 星図

・ 光度変化

        m1 = 13.0 + 5 logΔ + 10.0 log r

---------------------------------------------------------------------

軌道要素はM.P.E.C. 2006-B68に掲載されたものです。
星図は StellaNavigator Ver.2.0 for Windows (アストロアーツ 編著 / アスキー出版局刊) で作成したものです。
光度グラフはComet for Windowsで作成したものです。

---------------------------------------------------------------------

Copyright(C) Seiichi Yoshida (comet@aerith.net). All rights reserved.